Terminal Aerodrome Forecast
Issued by NWS Greer, SC

Home | Current Version | Previous Version | Text Only | Print | Product List | Glossary On
Versions: 1 2 3 4 5 6 7 8 9 10 11 12 13 14 15 16 17 18 19 20 21 22 23 24 25 26 27 28 29 30 31 32 33 34 35 36 37 38 39 40 41 42 43 44 45 46 47 48
000
FTUS42 KGSP 291504 AAA
TAFCLT
TAF AMD
KCLT 291504Z 2915/3012 06008KT P6SM FEW060
     FM291800 07006KT P6SM SCT050
     FM292300 10003KT P6SM BKN045
     FM300600 11006KT P6SM BKN020
     FM300900 12006KT P6SM BKN015=

USA.gov is the U.S. government's official web portal to all federal, state and local government web resources and services.